[[{"header":{"parameterUnit":"m.s-1","parameterCategory":1,"la1":30.2992,"la2":30.254,"lo1":-89.0895,"lo2":-89.0443,"dy":0.0025,"dx":0.0025,"nx":19,"ny":19,"refTime":"2026-04-25T21:00:00:Z","depth":0,"parameterNumber":2,"parameterNumberName":"U-component_of_WINDS"},"data":[0,0,0,0.3984,0.3986,0.4088,0.4089,0.4212,0.4213,0,0,0,0,0,0,0,0,0,0,0,0.3951,0.3952,0.3984,0.3987,0.4088,0.4089,0.4212,0.4213,0,0,0,0,0,0,0,0,0,0,0,0.3951,0.3952,0.3953,0.3987,0.4088,0.4089,0.4211,0.4137,0,0,0,0,0,0,0,0,0,0,0.4039,0.4006,0.3952,0.3953,0.3988,0.4088,0.4089,0.4133,0.4142,0.4163,0,0.4183,0,0.42,0.4221,0.4221,0,0,0,0.3989,0.4,0.403,0.3953,0.3989,0.4088,0.4043,0.4138,0.4147,0.4174,0.4185,0.4189,0.4202,0.4222,0.4222,0.4342,0.4342,0,0,0.3983,0.3968,0.4023,0.4035,0.402,0.404,0.4046,0.4144,0.4154,0.4185,0.4192,0.4204,0.4222,0.4223,0.4341,0.4342,0,0,0,0.3966,0.3964,0.3992,0.403,0.4049,0.4042,0.405,0.415,0.416,0.4194,0.4205,0.4223,0.4225,0.4341,0.4342,0.435,0,0,0,0.3962,0.3954,0.3989,0.3981,0.4047,0.4101,0.4053,0.4153,0.4165,0.4205,0.4223,0.4226,0.434,0.4341,0.4348,0.4356,0,0,0,0.3946,0.3952,0.3966,0.398,0.4023,0.41,0.4116,0.4156,0.4172,0.4221,0.4226,0.434,0.4341,0.4347,0.4354,0.4382,0,0,0,0.3924,0.3972,0.3966,0.4024,0.4022,0.4104,0.4115,0.4177,0.422,0.4224,0.4341,0.4342,0.4347,0.4353,0.4381,0.4403,0.4411,0,0,0.3976,0.3978,0.4013,0.4011,0.409,0.409,0.417,0.4224,0.4242,0.4307,0.431,0.4349,0.4354,0.4382,0.4461,0.4467,0,0,0,0.4025,0.405,0.4074,0.4115,0.4157,0.4194,0.4237,0.4257,0.4313,0.4273,0.4367,0.4371,0.4388,0.4399,0.4404,0.4419,0.4346,0.4346,0.4346,0.4078,0.4099,0.4158,0.419,0.4229,0.4273,0.4306,0.434,0.4349,0.4371,0.4391,0.4436,0.4449,0.4453,0.4468,0.4404,0.4404,0.4404,0.4404,0.4157,0.4195,0.4206,0.4267,0.4288,0.4339,0.4382,0.4386,0.4436,0.4424,0.444,0.4423,0.4459,0.4473,0.4405,0.4405,0.4405,0.4405,0.4405,0.4194,0.4215,0.4238,0.4298,0.4341,0.4372,0.4419,0.4436,0.4453,0.4468,0.449,0.449,0.4491,0.4477,0.4478,0.4478,0.4478,0.4478,0.4478,0.4222,0.4248,0.4286,0.4334,0.4361,0.4399,0.4442,0.4469,0.4503,0.4512,0.4512,0.4518,0.4459,0.4443,0.4481,0.448,0.448,0.448,0.448,0.4293,0.428,0.4339,0.4366,0.4422,0.4463,0.4484,0.4537,0.4562,0.4584,0.4587,0.454,0.4543,0.4539,0.4526,0.4583,0.4583,0.4583,0.4583,0.4324,0.4327,0.439,0.4432,0.4476,0.45,0.4564,0.4596,0.4628,0.4644,0.4638,0.4622,0.4617,0.4623,0.4617,0.4605,0.4681,0.4681,0.4682,0.4368,0.4376,0.4428,0.4459,0.4504,0.4541,0.4601,0.4648,0.4681,0.4686,0.4656,0.4652,0.4627,0.4618,0.4623,0.4614,0.4592,0,0]},{"header":{"parameterUnit":"m.s-1","parameterCategory":1,"la1":30.2992,"la2":30.254,"lo1":-89.0895,"lo2":-89.0443,"dy":0.0025,"dx":0.0025,"nx":19,"ny":19,"refTime":"2026-04-25T21:00:00:Z","depth":0,"parameterNumber":3,"parameterNumberName":"V-component_of_WINDS"},"data":[0,0,0,3.6605,3.6603,3.6477,3.6477,3.6312,3.631,0,0,0,0,0,0,0,0,0,0,0,3.6645,3.6644,3.6606,3.6603,3.6477,3.6477,3.6312,3.631,0,0,0,0,0,0,0,0,0,0,0,3.6646,3.6645,3.6644,3.6602,3.6477,3.6477,3.6312,3.6407,0,0,0,0,0,0,0,0,0,0,3.6529,3.657,3.6645,3.6643,3.6602,3.6478,3.6477,3.6412,3.6401,3.6368,0,3.6345,0,3.6326,3.6299,3.6299,0,0,0,3.6599,3.6579,3.6544,3.6643,3.66,3.6478,3.6533,3.6406,3.6394,3.6354,3.6343,3.6336,3.6323,3.6298,3.6298,3.6134,3.6134,0,0,3.6606,3.6623,3.6552,3.6536,3.6562,3.6537,3.6529,3.6399,3.6384,3.6342,3.6332,3.632,3.6297,3.6296,3.6135,3.6134,0,0,0,3.6628,3.6628,3.6595,3.6543,3.6521,3.6533,3.6524,3.639,3.6379,3.6331,3.6318,3.6296,3.6294,3.6135,3.6134,3.6124,0,0,0,3.6632,3.6641,3.6599,3.6607,3.6524,3.6455,3.6519,3.6388,3.6372,3.6319,3.6296,3.6293,3.6136,3.6135,3.6126,3.6116,0,0,0,3.6652,3.6643,3.6627,3.6609,3.6556,3.6457,3.6438,3.6384,3.6365,3.6299,3.6292,3.6136,3.6135,3.6128,3.6118,3.6079,0,0,0,3.6677,3.6616,3.6627,3.6553,3.6557,3.6454,3.6438,3.6359,3.6301,3.6296,3.6136,3.6134,3.6128,3.612,3.608,3.6049,3.6038,0,0,3.6609,3.6609,3.6564,3.657,3.647,3.6471,3.6367,3.6295,3.6269,3.6179,3.6175,3.6126,3.6118,3.6079,3.5969,3.596,0,0,0,3.6548,3.6517,3.6486,3.6435,3.6383,3.6335,3.6278,3.6251,3.6175,3.6229,3.61,3.6095,3.6071,3.6055,3.6047,3.6025,3.6128,3.6128,3.6128,3.6475,3.6452,3.6376,3.6337,3.6287,3.6231,3.6186,3.6139,3.6126,3.6096,3.6069,3.6006,3.5988,3.5982,3.5959,3.605,3.605,3.605,3.605,3.6373,3.6325,3.6313,3.6236,3.6209,3.6141,3.6083,3.6076,3.6006,3.6024,3.6001,3.6022,3.5973,3.5952,3.6049,3.6049,3.6049,3.6049,3.6049,3.6323,3.6295,3.6268,3.6192,3.6135,3.6096,3.6031,3.6008,3.5984,3.5962,3.593,3.593,3.5927,3.5949,3.5949,3.5949,3.5948,3.5948,3.5948,3.6281,3.625,3.6202,3.6143,3.6107,3.6057,3.6,3.5962,3.5913,3.5901,3.59,3.5889,3.5974,3.5996,3.5944,3.5945,3.5946,3.5946,3.5946,3.6187,3.6205,3.613,3.6096,3.6023,3.5968,3.594,3.5866,3.583,3.5799,3.5793,3.586,3.5855,3.5861,3.5879,3.5799,3.5799,3.5799,3.5799,3.6144,3.6141,3.606,3.6006,3.5949,3.5917,3.5828,3.5782,3.5736,3.5712,3.572,3.5741,3.5748,3.5739,3.5748,3.5764,3.5657,3.5657,3.5657,3.6084,3.6075,3.6007,3.5969,3.5911,3.586,3.5776,3.5709,3.566,3.5651,3.5692,3.5698,3.5733,3.5746,3.5737,3.5751,3.578,0,0]}]]